Sioux City, IA

3:36 PM CST on December 12, 2019 (GMT -0600)
Sioux Gateway

Weather History for KSUX - October, 2019

Change the Weather History Date:

Monday, October 14, 2019

  Actual Average Record
Temperature  
Mean Temperature 46 °F 52 °F  
Max Temperature 66 °F 64 °F 89 °F (1958)
Min Temperature 26 °F 39 °F 20 °F (1937)
Degree Days  
Heating Degree Days 19 14  
Month to date heating degree days 160  
Since 1 July heating degree days 307  
Cooling Degree Days 0 0  
Month to date cooling degree days 8  
Year to date cooling degree days 869  
Moisture  
Dew Point 34 °F    
Average Humidity 77    
Maximum Humidity 96    
Minimum Humidity 41    
Precipitation  
Precipitation 0.00 in 0.08 in 2.31 in (2013)
Month to date precipitation 1.16  
Year to date precipitation 24.66  
Snow  
Snow - 0.00 in 3.70 in (1966)
Month to date snowfall 0.2  
Since 1 July snowfall 0.2  
Since 1 September snowfall 0.2  
Snow Depth -    
Sea Level Pressure  
Sea Level Pressure 29.95 in    
Wind  
Wind Speed 5 mph ()    
Max Wind Speed 20 mph    
Max Gust Speed 28 mph    
Visibility 9.1 miles    
Events      
T = Trace of Precipitation, MM = Missing Value Source: Averaged Metar Reports

Daily Weather History Graph

Daily Weather History Graph

Search for Another Location

Airport or City:

Astronomy

Oct. 14, 2019 Rise Set
Actual Time 7:37 AM CDT 6:45 PM CDT
Civil Twilight 7:08 AM CDT 7:13 PM CDT
Nautical Twilight 6:36 AM CDT 7:46 PM CDT
Astronomical Twilight 6:03 AM CDT 8:18 PM CDT
Moon 7:35 PM CDT (10/14) 8:09 AM CDT (10/14)
Length of Visible Light 12h 04m
Length of Day
11h 08m
Full, 99% of the Moon is Illuminated
Oct 14
Full
Oct 21
Last Quarter
Oct 27
New
Nov 4
First Quarter
Nov 12
Full

Hourly Weather History & Observations

Time (CDT) Temp. Windchill Dew Point Humidity Pressure Visibility Wind Dir Wind Speed Gust Speed Precip Events Conditions
12:52 AM 28.9 °F 25.2 °F 28.0 °F 96% 30.06 in 10.0 mi WSW 3.5 mph - N/A   Clear
1:52 AM 30.9 °F 27.5 °F 30.0 °F 96% 30.05 in 10.0 mi North 3.5 mph - N/A   Clear
2:52 AM 27.0 °F - 26.1 °F 96% 30.07 in 10.0 mi Calm Calm - N/A   Clear
3:14 AM 28.0 °F - 26.1 °F 92% 30.04 in 1.8 mi Calm Calm - N/A   Partly Cloudy
3:18 AM 27.0 °F - 26.1 °F 96% 30.05 in 0.8 mi Calm Calm - N/A   Mist
3:38 AM 28.9 °F - 26.1 °F 89% 30.04 in 2.0 mi Calm Calm - N/A   Mostly Cloudy
3:45 AM 28.9 °F - 27.0 °F 92% 30.04 in 10.0 mi Calm Calm - N/A   Mostly Cloudy
3:52 AM 28.0 °F - 27.0 °F 96% 30.06 in 10.0 mi Calm Calm - N/A   Scattered Clouds
4:52 AM 28.0 °F - 25.0 °F 88% 30.06 in 10.0 mi Calm Calm - N/A   Clear
5:52 AM 27.0 °F 23.0 °F 25.0 °F 92% 30.05 in 10.0 mi ESE 3.5 mph - N/A   Clear
6:52 AM 26.1 °F 21.9 °F 24.1 °F 92% 30.06 in 10.0 mi SSE 3.5 mph - N/A   Clear
7:52 AM 26.1 °F 20.5 °F 24.1 °F 92% 30.07 in 10.0 mi SE 4.6 mph - N/A   Clear
8:52 AM 30.9 °F 24.3 °F 30.0 °F 96% 30.05 in 10.0 mi East 6.9 mph - N/A   Clear
9:52 AM 37.0 °F 31.0 °F 34.0 °F 89% 30.04 in 10.0 mi SE 8.1 mph - N/A   Clear
10:52 AM 45.0 °F 40.1 °F 36.0 °F 71% 30.03 in 10.0 mi South 9.2 mph - N/A   Clear
11:52 AM 51.1 °F - 37.0 °F 59% 30.00 in 10.0 mi SSE 11.5 mph - N/A   Clear
12:52 PM 55.9 °F - 37.0 °F 49% 29.96 in 10.0 mi SE 15.0 mph 24.2 mph N/A   Clear
1:52 PM 60.1 °F - 37.9 °F 44% 29.90 in 10.0 mi SSE 17.3 mph 27.6 mph N/A   Clear
2:52 PM 63.0 °F - 39.0 °F 41% 29.86 in 10.0 mi SSE 16.1 mph 27.6 mph N/A   Clear
3:52 PM 64.0 °F - 41.0 °F 43% 29.83 in 10.0 mi South 17.3 mph 26.5 mph N/A   Clear
4:52 PM 66.0 °F - 44.1 °F 45% 29.81 in 10.0 mi SSE 19.6 mph - N/A   Clear
5:52 PM 64.9 °F - 44.1 °F 47% 29.79 in 10.0 mi SSE 13.8 mph 20.7 mph N/A   Clear
6:52 PM 62.1 °F - 44.1 °F 52% 29.78 in 10.0 mi SSE 10.4 mph - N/A   Clear
7:52 PM 54.0 °F - 43.0 °F 66% 29.80 in 10.0 mi ESE 5.8 mph - N/A   Clear
8:52 PM 48.9 °F - 42.1 °F 77% 29.80 in 10.0 mi ESE 8.1 mph - N/A   Clear
9:52 PM 48.9 °F - 42.1 °F 77% 29.78 in 10.0 mi SE 9.2 mph - N/A   Clear
10:52 PM 46.9 °F - 43.0 °F 86% 29.78 in 10.0 mi ESE 9.2 mph - N/A   Clear
11:52 PM 48.0 °F - 44.1 °F 86% 29.76 in 10.0 mi ESE 8.1 mph - N/A   Clear